Weather in Novaya Maka

Russia / Republic of Dagestan     41°46′16″N   48°21′31″E
temp.,
°C
wind,
m/s
gust,
m/s
humid.,
%
clouds,
%
prec.,
mm/h
press.,
hPa
HPBL,
m
10 august, wed
wed1000:00+20wsw32570 0.0 101419
03:00+20wsw33570 0.0 101321
06:00+22wsw22500 0.0 101440
09:00+28ene22310 0.0 10131083
12:00+32ene55230 0.0 10112138
15:00+31e76270 0.0 10101407
18:00+28ese45350 0.0 1010714
21:00+22sw22500 0.0 101116
11 august, thu
thu1100:00+22sw22490 0.0 101015
03:00+21wsw22491 0.0 100916
06:00+24wsw11475 0.0 101030
09:00+32ese57240 0.0 10091534
12:00+36e1110230 0.0 10061846
15:00+34e1010310 0.0 10061314
18:00+30e58390 0.0 1008724
21:00+25nw33510 0.0 100933
12 august, fri
fri1200:00+23wsw11560 0.0 101011
03:00+22w11600 0.0 101011
06:00+25wnw11510 0.0 101140
09:00+31e44280 0.0 10111228
12:00+36e76200 0.0 10102227
15:00+34e87250 0.0 10111668
18:00+28e45380 0.1 1012304
21:00+22wsw22590 0.2 101415
13 august, sat
sat1300:00+22wsw11550 0.0 101311
03:00+22wsw33524 0.1 101216
06:00+24wsw22490 0.1 101333
09:00+31e45231 0.1 10121306
12:00+35e87210 0.0 10102208
15:00+34e88240 0.0 10101596
18:00+29e34380 0.0 1012434
21:00+23wsw22540 0.0 101213
14 august, sun
sun1400:00+22wsw11480 0.0 101113
03:00+22wsw22460 0.0 101014
06:00+24wsw22380 0.0 101132
09:00+33ese45190 0.0 10101251
12:00+36e77160 0.0 10092158
15:00+35e88200 0.0 10081608
18:00+30e45310 0.0 1010341
21:00+23wsw11500 0.0 101113